Volver al catálogo

STARLINK-11178

ActivoComunicacionesVLEO
NORAD 62465·PAYLOAD·🇺🇸 United States

Lanzado Dec 31, 2024 desde Cape Canaveral Space Force Station

Loading…

Próximos Pases (próximas 24 horas)

TLE

ActualizadoSource: CelesTrak SupGP

Época: Sep 15, 2026, 02:18 UTC

1 62465C 24254D   26258.09631944 -.00010932  00000+0 -84919-4 0  2588
2 62465  43.0006 161.5407 0001431 273.5654 219.4980 15.70841761    17

Sigue STARLINK-11178 en tiempo real con AllMySat

Download on the App Store